Weather in Chutove

Ukraine / Poltava Region     49°43′17″N   35°10′14″E
temp.,
°C
wind,
m/s
gust,
m/s
humid.,
%
clouds,
%
prec.,
mm/h
press.,
hPa
HPBL,
m
13 may, thu
thu1300:00+7ese379399 0.6 1012202
03:00+5se4109541 0.6 1013216
06:00+5sse37955 0.0 1013177
09:00+11s46755 0.0 1013649
12:00+15s565626 0.0 10131394
15:00+18s56493 0.0 10131625
18:00+17s3656100 0.0 1013817
21:00+13se2266100 0.0 101316
14 may, fri
fri1400:00+11ese457098 0.0 101356
03:00+12e377879 0.0 1012134
06:00+12ese498851 0.0 1011178
09:00+18se69771 0.3 1010594
12:00+22sse6863100 0.0 10091129
15:00+23s6958100 0.0 10081475
18:00+21s5964100 0.1 1008446
21:00+16ssw41273100 0.1 1009253
15 may, sat
sat1500:00+14sw498460 0.0 1010183
03:00+11sw3793100 0.0 1011131
06:00+11s369311 0.0 1012144
09:00+17ssw46720 0.0 1013645
12:00+21sw46550 0.0 10131593
15:00+20ssw3562100 0.0 1013212
18:00+20ssw2364100 0.1 1013293
21:00+16sse3371100 0.1 101322
16 may, sun
sun1600:00+15sse1274100 0.0 101310
03:00+14ene117814 0.1 101411
06:00+14e22790 0.0 101421
09:00+20ene3465100 0.0 1013464
12:00+24ene33485 0.0 10131503
15:00+25ene344463 0.0 10111786
18:00+24ene4760100 0.0 1010456
21:00+17ne4984100 0.3 1009157
17 may, mon
mon1700:00+17ene4991100 0.0 1008158
03:00+16ene41184100 0.0 1006202
06:00+15e5138238 0.0 1006253
09:00+21ese712575 0.0 1005580
12:00+24se81048100 0.0 10041058
15:00+25se684833 0.0 10041399
18:00+24sse5964100 0.0 10041028
21:00+19sse5128559 0.1 1005311